Date,TemperatureHighF,TemperatureAvgF,TemperatureLowF,DewpointHighF,DewpointAvgF,DewpointLowF,HumidityHigh,HumidityAvg,HumidityLow,PressureMaxIn,PressureMinIn,WindSpeedMaxMPH,WindSpeedAvgMPH,GustSpeedMaxMPH,PrecipitationSumIn
2014-1-1,28,21,15,24,20,14,99,95,82,30.06,29.99,14,3,21,0.00
2014-1-2,22,12,-1,14,8,-5,99,86,66,30.36,30.03,14,6,21,0.00
2014-1-3,26,13,-9,16,6,-12,95,75,54,30.34,29.78,21,7,30,0.21
2014-1-4,42,30,19,29,22,16,99,72,53,29.92,29.74,14,7,23,0.00
2014-1-5,19,10,-4,19,7,-19,99,87,44,30.21,29.85,24,12,36,5.91
2014-1-6,-2,-7,-14,-15,-19,-23,70,56,45,30.32,30.20,16,7,29,0.38
2014-1-7,21,4,-8,5,-4,-15,87,68,44,30.25,30.01,11,4,15,0.00
2014-1-8,26,14,3,12,8,0,89,77,51,30.36,30.09,4,1,8,0.00
2014-1-9,30,22,13,30,20,9,99,96,85,30.34,30.00,6,3,10,0.00
2014-1-10,53,37,30,44,37,30,99,99,99,30.00,29.43,17,6,25,0.60
2014-1-11,46,37,27,42,34,27,99,90,66,29.81,29.42,13,5,22,0.01
2014-1-12,58,43,26,37,32,25,99,69,38,29.81,29.50,20,8,29,0.00
2014-1-13,53,41,29,39,34,28,99,79,54,29.76,29.48,14,5,21,0.00
2014-1-14,42,33,23,39,25,14,99,75,53,29.97,29.58,17,8,29,0.04
2014-1-15,23,22,20,15,14,13,78,73,69,30.00,29.97,13,8,21,0.00
2014-1-21,14,10,6,5,2,-1,91,70,56,30.32,30.07,16,4,24,0.01
2014-1-22,27,16,2,17,9,-5,83,73,60,30.27,29.89,17,7,32,0.00
2014-1-23,13,3,-4,0,-6,-10,83,67,49,30.62,30.27,17,5,25,0.00
2014-1-24,36,20,0,16,2,-5,79,47,25,30.50,29.53,22,9,36,0.21
2014-1-25,39,30,18,36,8,-22,96,45,11,29.89,29.49,24,7,34,3.79
2014-1-26,53,38,14,34,21,-6,88,52,37,29.97,29.41,27,9,38,0.00
2014-1-27,14,6,-3,-2,-8,-13,83,52,33,30.36,29.96,22,7,34,0.00
2014-1-28,17,2,-7,-2,-8,-12,87,67,31,30.36,30.28,9,2,15,0.00
2014-1-30,38,32,24,31,24,20,84,73,56,29.89,29.72,10,4,15,0.00
2014-1-31,24,20,17,22,19,17,99,96,83,30.03,29.86,9,2,13,0.00
2014-2-1,29,24,20,29,24,20,99,99,98,30.03,29.72,4,0,8,0.00
2014-2-2,21,12,-1,21,9,-3,99,88,81,30.22,30.03,0,0,0,0.00
2014-2-3,34,12,-8,22,6,-10,98,79,42,30.30,30.17,0,0,0,0.02
2014-2-4,20,16,10,20,16,10,99,98,94,30.22,29.91,0,0,0,0.00
2014-2-5,17,10,1,17,8,-3,99,89,74,29.98,29.64,2,0,4,0.00
2014-2-6,13,2,-6,-1,-5,-10,84,70,47,30.01,29.85,0,0,0,0.00
2014-2-7,21,7,-7,9,-2,-11,88,68,37,29.87,29.70,0,0,0,0.00
2014-2-8,26,19,11,21,16,8,98,88,69,29.70,29.53,0,0,0,0.00
2014-2-9,23,17,4,22,12,-3,99,82,67,29.79,29.54,12,1,16,0.00
2014-2-10,23,5,-6,3,-4,-11,84,67,38,29.92,29.79,9,2,16,0.00
2014-2-11,24,6,-10,2,-5,-14,87,63,33,29.96,29.72,4,1,8,0.00
2014-2-12,40,15,-5,11,2,-10,92,62,16,29.73,29.41,10,2,12,0.00
2014-2-13,12,10,8,10,8,5,94,89,82,29.41,29.33,5,1,8,0.00
2014-2-14,28,18,8,25,15,4,99,87,72,29.49,29.10,13,5,20,0.00
2014-2-15,29,13,-2,22,8,-4,96,81,61,29.53,29.30,14,3,18,0.00
2014-2-16,45,27,22,25,21,18,93,80,40,29.67,29.36,14,5,21,0.00
2014-2-17,42,32,22,38,29,19,99,89,69,29.55,29.21,13,4,23,0.28
2014-2-18,61,48,37,34,26,16,72,46,19,29.41,29.17,17,7,25,0.00
2014-2-19,59,42,35,38,34,26,99,74,31,29.50,29.16,11,4,16,0.33
2014-2-20,66,43,35,61,40,29,99,92,66,29.16,28.62,27,8,42,0.14
2014-2-21,52,39,28,30,23,16,81,54,25,29.36,29.02,19,7,30,0.00
2014-2-22,51,37,27,36,29,23,99,74,49,29.53,29.35,8,2,14,0.00
2014-2-23,34,26,19,23,17,12,86,68,45,29.78,29.51,14,5,20,0.00
2014-2-24,28,24,20,21,16,12,91,72,54,29.81,29.67,6,2,10,0.00
2014-2-25,23,18,12,21,12,-1,99,77,51,29.78,29.67,14,6,21,0.00
2014-2-26,26,15,1,12,-2,-10,75,49,23,29.79,29.27,14,7,24,0.00
2014-2-27,26,16,9,14,-3,-20,75,45,13,29.62,29.28,17,5,24,0.00
2014-2-28,46,28,8,19,11,1,88,53,21,29.54,29.38,17,6,24,0.00
2014-3-1,40,25,14,27,20,13,98,84,41,29.79,29.44,13,6,36,0.00
2014-3-2,14,5,-1,13,0,-10,99,79,61,29.91,29.76,13,8,20,0.00
2014-3-3,28,9,-8,7,-4,-15,77,56,27,29.97,29.80,12,2,19,0.00
2014-3-4,42,29,9,16,12,6,93,54,30,29.83,29.61,10,3,14,0.00
2014-3-5,42,37,23,24,17,14,94,49,32,29.84,29.65,9,4,14,0.00
2014-3-6,32,23,20,24,22,20,99,94,72,29.81,29.76,4,2,10,0.00
2014-3-7,63,45,30,36,28,21,98,57,22,29.57,29.38,11,4,17,0.00
2014-3-8,37,34,32,37,34,32,99,98,92,29.79,29.50,9,4,14,0.09
2014-3-9,56,40,21,34,29,21,99,70,38,29.78,29.41,16,5,24,0.00
2014-3-10,67,52,39,39,35,31,86,54,27,29.41,29.19,17,6,24,0.00
2014-3-11,77,54,38,52,41,35,99,66,33,29.19,29.01,16,3,23,0.26
2014-3-12,39,34,26,38,29,22,99,84,61,29.62,29.15,17,8,27,0.27
2014-3-13,63,41,21,36,28,21,99,66,25,29.60,29.34,11,4,16,0.00
2014-3-14,64,53,39,32,26,19,61,36,21,29.47,29.21,20,7,28,0.04
2014-3-15,66,46,28,39,31,24,88,59,27,29.54,29.44,11,3,17,0.00
2014-3-16,38,29,21,34,22,15,96,76,47,29.70,29.54,16,7,30,0.00
2014-3-17,47,31,15,22,16,-6,99,59,14,29.60,29.24,12,3,21,0.00
2014-3-18,60,46,32,42,34,20,99,67,41,29.26,29.05,23,8,32,0.06
2014-3-19,51,42,26,50,37,-9,99,84,10,29.64,29.07,17,7,25,0.05
2014-3-20,34,32,25,30,29,25,99,91,84,29.62,29.58,7,2,11,0.00
2014-3-26,46,45,41,33,21,14,73,41,27,29.51,29.47,0,0,1,0.01
2014-3-27,57,47,38,56,44,33,99,89,70,29.47,29.00,8,0,18,0.52
2014-3-28,51,41,38,42,38,36,98,88,64,29.69,29.18,0,0,1,0.00
2014-3-29,50,39,32,38,35,30,99,87,61,29.78,29.65,0,0,1,0.00
2014-3-30,67,48,26,40,34,25,99,65,25,29.78,29.51,0,0,1,0.00
2014-3-31,70,57,45,47,40,31,89,56,25,29.52,29.22,10,0,17,0.00
2014-4-1,61,45,31,46,28,20,92,52,21,29.61,29.34,3,0,11,0.05
2014-4-2,50,45,42,50,44,40,99,98,88,29.60,29.37,2,0,14,0.83
2014-4-3,59,50,45,58,50,44,99,99,98,29.38,29.08,10,0,13,1.15
2014-4-4,59,43,36,59,37,29,99,81,63,29.66,29.07,11,0,20,0.07
2014-4-5,58,45,32,35,31,26,85,60,31,29.76,29.63,0,0,8,0.00
2014-4-6,62,48,34,42,35,24,99,66,24,29.65,29.40,2,0,7,0.00
2014-4-7,61,51,42,45,38,20,90,65,24,29.40,29.21,2,0,10,0.01
2014-4-8,63,53,43,44,36,21,96,57,21,29.58,29.29,2,0,8,0.00
2014-4-9,69,54,37,40,28,8,91,46,10,29.65,29.41,4,0,10,0.00
2014-4-10,59,58,56,32,29,27,39,34,30,29.42,29.34,0,0,1,0.00
2014-4-11,78,60,37,38,22,9,76,30,10,29.62,29.52,0,0,0,0.00
2014-4-12,83,68,52,61,51,31,86,56,37,29.53,29.19,14,1,20,0.48
2014-4-13,71,66,55,68,61,54,99,85,62,29.27,28.98,24,9,35,0.19
2014-4-14,54,38,31,54,37,25,99,95,79,29.62,29.03,17,8,27,0.05
2014-4-15,51,37,27,26,21,9,83,56,20,29.73,29.62,12,4,19,0.00
2014-4-16,60,47,34,28,23,14,72,42,17,29.70,29.51,21,10,31,0.00
2014-4-17,59,50,45,43,38,27,89,62,45,29.82,29.58,14,4,20,0.00
2014-4-18,75,56,36,43,33,11,99,52,10,29.87,29.75,6,1,14,0.00
2014-4-19,78,61,41,44,34,14,91,44,10,29.82,29.68,12,4,17,0.00
2014-4-20,84,70,56,49,42,29,64,39,17,29.71,29.56,14,5,20,0.00
2014-4-21,72,66,59,62,55,44,99,68,45,29.57,29.43,11,3,17,0.00
2014-4-22,77,57,44,51,35,17,79,49,16,29.59,29.47,14,6,22,0.00
2014-4-23,64,52,39,38,32,23,86,48,25,29.68,29.44,11,5,17,0.00
2014-4-24,76,59,49,58,42,33,99,58,27,29.44,29.10,19,6,26,0.25
2014-4-25,78,61,45,53,44,28,99,62,16,29.46,29.21,14,5,20,0.00
2014-4-26,76,64,59,55,43,23,80,49,15,29.43,29.29,13,4,18,0.01
2014-4-27,81,64,51,70,56,41,99,76,50,29.37,29.03,21,7,33,0.37
2014-4-28,76,62,50,68,58,44,99,86,52,29.12,28.90,21,7,28,0.76
2014-4-29,55,52,49,52,47,43,99,85,68,29.21,28.95,14,5,21,0.01
2014-4-30,57,46,41,50,42,38,99,85,55,29.41,29.21,14,5,23,0.05
2014-5-1,53,47,43,46,43,41,99,86,68,29.47,29.33,12,5,23,0.02
2014-5-2,65,53,45,46,43,39,97,73,41,29.47,29.30,11,4,19,0.00
2014-5-3,76,62,50,47,40,27,76,50,18,29.50,29.29,11,3,17,0.00
2014-5-4,77,63,48,49,41,34,84,48,24,29.57,29.41,11,2,19,0.00
2014-5-5,80,63,47,49,38,24,55,40,25,29.45,29.31,9,3,17,0.00
2014-5-6,85,68,50,61,50,40,72,54,36,30.14,29.20,13,5,21,19.39
2014-5-7,86,76,64,66,62,56,91,64,37,30.01,29.92,14,6,21,0.00
2014-5-8,86,72,64,71,66,61,99,82,45,30.09,30.00,18,7,27,0.58
2014-5-9,77,67,55,66,56,40,99,72,31,30.14,29.94,12,5,18,0.13
2014-5-10,82,66,49,63,48,18,99,61,13,30.21,30.04,11,3,19,0.30
2014-5-11,86,73,61,74,67,59,99,80,57,30.18,30.01,14,7,21,0.05
2014-5-12,89,77,65,73,70,64,99,82,50,30.14,29.98,17,7,29,0.74
2014-5-13,66,55,48,65,54,48,99,95,83,30.42,30.08,11,4,18,0.05
2014-5-14,56,49,45,49,46,41,99,90,64,30.42,30.24,11,2,19,0.11
2014-5-15,64,50,42,53,45,36,99,83,52,30.27,30.19,11,3,17,0.08
2014-5-16,55,46,39,46,41,37,99,85,55,30.32,30.18,12,4,19,0.01
2014-5-17,69,51,35,45,35,20,99,64,17,30.40,30.30,7,2,14,0.00
2014-5-18,71,58,39,46,39,27,99,55,21,30.45,30.34,14,4,20,0.00
2014-5-19,78,65,50,62,53,45,88,66,46,30.36,30.04,18,7,27,0.00
2014-5-20,87,75,63,72,66,61,97,75,51,30.14,30.04,11,4,18,0.00
2014-5-21,90,79,68,72,68,65,95,71,49,30.19,30.05,14,3,27,0.11
2014-5-22,78,67,59,62,58,54,99,77,45,30.44,30.30,11,2,17,0.04
2014-5-23,88,69,53,64,51,29,99,63,13,30.39,30.33,6,0,9,0.00
2014-5-24,80,67,54,60,54,48,91,66,37,30.40,30.30,6,2,11,0.00
2014-5-25,81,69,62,72,64,56,99,87,70,30.33,30.23,8,3,14,0.00
2014-5-26,86,72,61,75,68,61,99,88,62,30.26,30.18,9,3,14,0.04
2014-5-27,87,75,66,70,67,61,99,79,46,30.23,30.14,6,3,12,0.00
2014-5-28,90,77,65,72,68,62,99,76,41,30.20,30.13,7,2,11,0.00
2014-5-29,91,76,66,77,70,66,99,83,49,30.27,30.16,10,1,12,0.06
2014-5-30,89,74,66,76,70,66,99,91,57,30.33,30.25,9,1,13,0.05
2014-5-31,90,75,66,75,70,66,99,87,47,30.33,30.23,21,2,32,0.32
2014-6-1,88,76,67,79,72,67,99,89,58,30.27,30.15,11,3,15,0.01
2014-6-2,88,81,64,72,59,34,90,52,15,30.17,29.89,9,3,17,0.00
2014-6-3,95,80,68,74,69,55,99,72,28,30.01,29.79,14,2,21,0.44
2014-6-4,85,71,65,75,69,65,99,92,66,29.92,29.58,16,3,24,1.69
2014-6-5,82,68,62,66,63,61,99,84,53,29.98,29.81,11,2,18,0.00
2014-6-6,89,76,58,72,66,58,99,73,42,29.99,29.90,5,1,9,0.00
2014-6-7,75,67,61,70,66,61,99,98,81,29.97,29.67,13,3,21,0.96
2014-6-8,83,69,60,70,64,60,99,86,53,30.01,29.85,9,2,15,0.01
2014-6-9,84,69,-3,68,60,-9,99,75,49,29.97,29.80,8,1,108,0.01
2014-6-10,74,64,59,74,64,58,99,99,88,29.81,29.68,5,1,11,0.81
2014-6-11,75,66,61,71,65,49,99,97,79,29.80,29.67,7,2,11,1.15
2014-6-12,79,67,61,72,66,61,99,95,74,29.92,29.77,9,2,15,0.06
2014-6-13,82,67,53,62,54,40,99,69,25,30.05,29.91,6,1,11,0.01
2014-6-14,80,68,52,57,53,44,99,63,30,30.06,29.87,13,5,19,0.00
2014-6-15,86,73,-19,73,65,-25,99,78,50,30.00,29.75,14,4,23,0.00
2014-6-16,91,79,67,82,74,66,99,84,60,30.05,29.84,11,3,18,0.02
2014-6-17,90,83,64,79,65,34,92,60,15,30.12,29.83,14,4,21,2.86
2014-6-18,92,82,70,81,76,70,99,83,61,29.93,29.86,10,4,16,0.00
2014-6-19,93,82,70,78,74,70,99,81,55,29.99,29.91,10,3,16,0.52
2014-6-20,78,71,68,78,71,68,99,99,97,29.97,29.91,5,1,8,0.26
2014-6-21,101,76,67,96,72,67,99,89,62,29.93,29.81,21,3,54,1.31
2014-6-22,87,72,67,82,71,66,99,96,77,29.86,29.76,16,3,24,0.20
2014-6-23,88,75,67,80,72,66,99,91,63,29.84,29.74,6,1,11,0.08
2014-6-24,88,76,67,77,70,64,99,83,47,29.92,29.81,106,2,106,0.01
2014-6-25,92,77,66,72,68,61,99,76,42,29.99,29.90,4,0,8,0.00
2014-6-26,89,76,63,76,70,63,99,84,60,29.99,29.88,11,2,14,0.00
2014-6-27,89,77,68,77,73,68,99,88,62,29.92,29.84,11,4,17,0.00
2014-6-28,87,76,71,82,75,70,99,96,77,29.93,29.81,11,4,21,0.35
2014-6-29,90,78,67,81,75,66,99,92,72,29.95,29.81,9,4,15,0.01
2014-6-30,91,83,70,84,79,68,99,89,67,29.83,29.58,32,5,32,0.15
2014-7-1,85,75,68,74,68,62,99,82,51,29.87,29.65,10,3,18,0.02
2014-7-2,71,65,59,68,60,57,99,85,67,30.03,29.85,11,4,21,0.00
2014-7-3,83,68,57,63,58,51,99,77,37,30.17,30.02,8,2,12,0.00
2014-7-4,85,70,56,72,58,49,99,72,33,30.25,30.16,7,1,11,0.00
2014-7-5,79,69,58,71,65,58,99,87,69,30.20,29.99,8,3,14,0.05
2014-7-6,88,78,70,77,72,70,99,84,60,29.99,29.80,9,4,15,0.01
2014-7-7,94,83,74,80,75,66,99,81,42,29.83,29.65,10,3,16,0.07
2014-7-8,85,74,64,75,67,20,99,81,10,29.89,29.65,26,4,38,1.06
2014-7-9,86,72,60,69,63,54,99,77,41,30.03,29.88,10,2,14,0.00
2014-7-10,85,71,56,68,61,56,99,76,39,30.11,30.01,8,2,14,0.00
2014-7-11,87,74,58,77,68,58,99,84,61,30.12,29.99,10,3,17,0.00
2014-7-12,92,83,75,80,77,73,99,83,60,30.03,29.89,8,3,15,0.00
2014-7-13,92,79,69,79,74,69,99,84,55,29.95,29.88,11,2,19,0.08
2014-7-14,84,74,62,78,67,53,99,81,47,29.97,29.83,11,4,17,0.00
2014-7-15,74,63,54,60,56,53,99,80,58,30.00,29.92,10,4,17,0.00
2014-7-16,82,66,55,63,57,49,99,77,34,30.01,29.97,7,1,11,0.00
2014-7-17,85,68,54,69,60,54,99,79,35,30.06,29.99,5,1,9,0.00
2014-7-18,84,69,56,68,61,53,99,78,40,30.08,30.01,8,2,13,0.00
2014-7-19,89,71,55,70,61,53,99,76,31,30.03,29.97,4,1,8,0.00
2014-7-20,87,73,58,73,66,58,99,81,49,30.01,29.95,6,2,9,0.00
2014-7-21,89,77,65,76,71,65,99,83,59,30.04,29.95,9,3,14,0.00
2014-7-22,90,77,70,84,76,70,99,96,79,30.06,29.91,8,2,14,0.00
2014-7-23,89,78,60,78,71,60,99,82,44,30.09,29.96,8,1,14,0.00
2014-7-24,89,71,55,68,59,51,99,72,31,30.12,29.98,5,0,10,0.00
2014-7-25,81,69,60,72,66,60,99,92,63,29.92,29.66,15,4,24,0.56
2014-7-26,91,78,66,83,76,66,99,95,70,29.70,29.63,9,2,15,0.06
2014-7-27,86,77,66,82,70,60,99,80,45,29.84,29.62,14,5,24,0.01
2014-7-28,78,67,56,67,61,55,99,81,48,29.97,29.83,9,3,17,0.00
2014-7-29,84,68,54,67,60,53,99,80,42,29.96,29.88,8,2,12,0.00
2014-7-30,89,71,59,67,62,55,99,77,37,29.91,29.86,7,1,10,0.00
2014-7-31,91,73,58,71,64,58,99,78,37,29.92,29.87,4,0,7,0.00
2014-8-1,90,70,59,76,66,58,99,89,47,29.94,29.87,9,1,15,0.17
2014-8-2,92,74,59,76,66,59,99,81,41,29.99,29.90,4,0,6,0.01
2014-8-3,91,74,60,74,66,59,99,80,42,30.00,29.90,5,1,8,0.00
2014-8-4,92,76,61,75,70,61,99,83,46,29.93,29.82,6,1,10,0.00
2014-8-5,92,78,66,79,73,66,99,86,59,29.88,29.80,8,1,12,0.06
2014-8-6,85,73,66,77,71,66,99,94,69,29.92,29.81,7,1,12,0.20
2014-8-7,76,69,66,74,69,62,99,99,99,29.83,29.70,12,3,19,1.97
2014-8-8,74,69,67,74,69,65,99,99,99,29.80,29.69,5,1,11,0.13
2014-8-9,86,72,66,78,71,66,99,96,70,29.84,29.77,2,0,3,0.01
2014-8-10,80,73,68,77,72,68,99,97,83,29.84,29.75,4,0,8,0.00
2014-8-11,85,74,66,76,70,66,99,88,68,29.78,29.72,11,3,19,0.00
2014-8-12,80,69,61,66,62,57,99,81,51,29.86,29.74,11,4,19,0.00
2014-8-13,89,71,58,66,61,55,99,76,34,29.94,29.85,6,1,9,0.00
2014-8-14,90,73,60,73,66,60,99,82,44,29.91,29.83,6,0,9,0.00
2014-8-15,79,70,63,75,70,63,99,97,81,29.87,29.73,5,1,9,0.06
2014-8-16,74,70,67,74,69,66,99,99,99,29.74,29.63,11,3,18,1.90
2014-8-17,84,72,68,80,72,68,99,98,84,29.75,29.62,4,0,6,0.05
2014-8-18,93,76,66,82,72,65,99,88,54,29.75,29.62,4,0,8,0.00
2014-8-19,89,76,68,79,73,68,99,91,63,29.66,29.56,9,1,14,0.02
2014-8-20,88,76,69,84,76,69,99,97,87,29.81,29.64,8,2,13,0.33
2014-8-21,96,83,73,84,78,73,99,87,63,29.78,29.73,8,3,15,0.00
2014-8-22,94,82,77,85,80,76,99,92,66,29.83,29.71,7,2,13,0.09
2014-8-23,99,84,75,85,79,74,99,87,53,29.79,29.72,12,1,18,0.00
2014-8-24,101,85,70,86,78,70,99,83,45,29.80,29.73,4,0,8,0.01
2014-8-25,101,86,76,83,79,75,99,82,50,29.87,29.77,6,1,11,0.00
2014-8-26,99,84,74,86,80,74,99,89,55,29.93,29.83,7,1,11,0.00
2014-8-27,91,79,70,83,76,70,99,93,70,29.95,29.88,6,1,10,0.00
2014-8-28,92,76,69,82,74,68,99,93,67,29.89,29.77,6,1,12,0.30
2014-8-29,91,77,70,78,72,68,99,87,50,29.79,29.66,11,2,18,0.28
2014-8-30,92,79,70,79,75,70,99,88,58,29.73,29.68,8,2,12,0.00
2014-8-31,99,80,70,85,77,70,99,91,55,30.17,30.10,4,0,8,0.00
2014-9-1,91,75,69,80,73,68,99,95,69,30.14,29.90,8,0,11,0.58
2014-9-2,88,76,68,76,71,67,99,86,55,30.05,29.91,7,2,12,0.02
2014-9-3,88,76,68,78,73,67,99,92,70,30.08,29.97,7,2,13,0.00
2014-9-4,95,82,71,82,77,71,99,86,60,30.04,29.97,8,3,14,0.00
2014-9-5,95,78,61,81,74,60,99,89,59,30.21,30.00,14,2,25,0.18
2014-9-6,84,66,53,66,59,53,99,83,39,30.25,30.15,7,1,11,0.00
2014-9-7,87,65,50,71,54,46,99,74,27,30.26,30.15,6,0,13,0.01
2014-9-8,84,68,50,68,60,50,99,80,47,30.17,30.02,8,2,13,0.00
2014-9-9,74,68,63,73,66,60,99,94,71,30.07,29.77,14,4,21,1.41
2014-9-10,84,72,60,82,72,60,99,98,88,29.97,29.65,14,5,28,3.25
2014-9-11,61,56,52,60,55,52,99,97,82,30.29,29.97,8,2,14,0.00
2014-9-12,64,52,47,57,51,46,99,97,78,30.36,30.22,8,1,14,0.00
2014-9-13,74,53,40,54,44,37,99,78,30,30.39,30.30,6,1,11,0.00
2014-9-14,76,56,39,57,47,39,99,77,37,30.30,30.17,5,1,14,0.00
2014-9-15,63,59,55,63,58,54,99,99,94,30.21,30.05,8,1,14,0.41
2014-9-16,78,60,45,64,53,44,99,82,41,30.25,30.09,4,0,6,0.00
2014-9-17,75,58,48,66,56,48,99,95,69,30.10,29.96,7,1,11,0.01
2014-9-18,84,61,48,63,55,48,99,82,40,30.11,29.99,8,1,14,0.01
2014-9-19,80,64,49,64,58,48,99,82,46,30.13,29.99,8,2,14,0.00